This demonstration page uses our WeatherBlox Daily Observations layout. Learn more.

Left ArrowRight Arrow

39.92423, -83.80882

Hourly Observations for August 21, 2019

Temp ( °F °C ) Dew Point ( °F °C ) Humidity (%) Winds ( mph kmh ) Pressure ( in mb ) Visibility ( mi km ) Precip ( " mm )
12:56 am 00:56 Clear 68 20 68 20 100 100 SW 6 9 30 1016 10 16.0934 N/A
1:56 am 01:56 Mostly Cloudy 69 20.6 69 20.6 100 100 WSW 6 9 30 1016 8 12.87472 N/A
2:56 am 02:56 Mostly Cloudy 69 20.6 69 20.6 100 100 SW 7 11 30 1016 7 11.26538 N/A
3:56 am 03:56 Partly Cloudy 69 20.6 69 20.6 100 100 WSW 10 17 29.99 1016 9 14.48406 N/A
4:41 am 04:41 Partly Cloudy with Mist and Fog 68 20 68 20 100 100 WSW 9 15 29.96 1015 6 9.65604 N/A
4:56 am 04:56 Mostly Cloudy with Mist and Fog 68 20 68 20 100 100 WSW 10 17 29.97 1015 5 8.0467 N/A
5:10 am 05:10 Cloudy with Mist and Fog 68 20 68 20 100 100 WSW 8 13 29.96 1015 6 9.65604 N/A
5:19 am 05:19 Cloudy 70 21 70 21 100 100 WSW 7 11 29.96 1014 7 11.26538 N/A
5:56 am 05:56 Cloudy 69 20.6 69 20.6 100 100 WSW 7 11 29.97 1015 9 14.48406 N/A
6:56 am 06:56 Cloudy 68 20 68 20 100 100 SW 6 9 29.96 1015 7 11.26538 N/A
7:56 am 07:56 Cloudy with Mist and Fog 69 20.6 69 20.6 100 100 SW 6 9 29.97 1015 6 9.65604 N/A
8:07 am 08:07 Cloudy with Mist and Fog 70 21 70 21 100 100 SSW 7 11 29.96 1014 6 9.65604 N/A
8:31 am 08:31 Cloudy 70 21 70 21 100 100 WSW 7 11 29.96 1014 7 11.26538 N/A
8:51 am 08:51 Cloudy with Mist and Fog 70 21 70 21 100 100 SW 7 11 29.96 1014 6 9.65604 N/A
8:56 am 08:56 Cloudy 70 21.1 70 21.1 100 100 SSW 5 7 29.98 1015 7 11.26538 N/A
9:10 am 09:10 Cloudy 72 22 72 22 100 100 SW 6 9 29.95 1014 8 12.87472 N/A
9:56 am 09:56 Cloudy 71 21.7 71 21.7 100 100 WSW 5 7 29.98 1015 9 14.48406 N/A
10:24 am 10:24 Cloudy 72 22 70 21 94 94 W 9 15 29.97 1015 10 16.0934 N/A
10:43 am 10:43 Cloudy 72 22 70 21 94 94 WSW 8 13 29.97 1015 10 16.0934 N/A
10:56 am 10:56 Cloudy 72 22.2 70 21.1 94 94 SW 8 13 30 1016 10 16.0934 N/A
11:56 am 11:56 Cloudy 72 22.2 70 21.1 94 94 SW 7 11 30 1016 10 16.0934 N/A
1:35 pm 13:35 Cloudy 75 24 70 21 83 83 WSW 12 19 29.98 1015 10 16.0934 N/A
1:56 pm 13:56 Cloudy 78 25.6 69 20.6 74 74 W 10 17 29.99 1016 10 16.0934 N/A
2:56 pm 14:56 Cloudy 81 27.2 70 21.1 69 69 W 9 15 29.99 1016 10 16.0934 N/A
3:03 pm 15:03 Cloudy 81 27 70 21 70 70 W 10 17 29.96 1014 10 16.0934 N/A
3:13 pm 15:13 Cloudy 79 26 70 21 74 74 W 12 19 29.96 1015 10 16.0934 N/A
3:56 pm 15:56 Mostly Cloudy 82 27.8 69 20.6 65 65 W 8 13 29.98 1015 10 16.0934 N/A
4:56 pm 16:56 Mostly Cloudy 81 27.2 69 20.6 67 67 W 10 17 29.97 1015 10 16.0934 N/A
5:56 pm 17:56 Partly Cloudy 83 28.3 69 20.6 63 63 WNW 10 17 29.97 1015 10 16.0934 N/A
6:56 pm 18:56 Sunny 83 28.3 69 20.6 63 63 WNW 8 13 29.96 1015 10 16.0934 N/A
7:56 pm 19:56 Sunny 78 25.6 69 20.6 74 74 NW 6 9 29.95 1014 10 16.0934 N/A
8:56 pm 20:56 Clear 74 23.3 70 21.1 88 88 N N/A 29.96 1015 10 16.0934 N/A
9:56 pm 21:56 Clear 72 22.2 70 21.1 94 94 S 3 6 29.96 1015 10 16.0934 N/A
10:56 pm 22:56 Clear 71 21.7 71 21.7 100 100 SSW 3 6 29.97 1015 10 16.0934 N/A
11:56 pm 23:56 Clear 71 21.7 70 21.1 96 96 WNW 7 11 29.98 1015 10 16.0934 N/A

Powered by AerisWeather